User: anonymous   Login
Location: Newark
(40.7119°N, 74.0097°W)
Time: 04:06:39
(UTC+00:00)
Language:

Tiangong - Orbit

View from above orbital plane
View from above orbital plane
View from above satellite
View from above satellite

Ground track
Ground track

The orbit data is extracted from the following two-line orbital elements,

1 48274U 21035A   21208.77475872  .00008427  00000-0  94740-4 0  9995
2 48274  41.4704  35.4718 0008950 249.2882 229.7896 15.62719377 14042
Epoch (UTC): 27 July 2021 18:35:39
Eccentricity: 0.0008950
inclination: 41.4704°
perigee height: 374 km
apogee height: 386 km
right ascension of ascending node: 35.4718°
argument of perigee: 249.2882°
revolutions per day: 15.62719377
mean anomaly at epoch: 229.7896°
orbit number at epoch: 1404

The dashed part of the orbit path shows where the satellite is in the earth's shadow,  

DLR